Regional Weather Roundup
Issued by NWS

Home | Current Version | Previous Version | Text Only | Print | Product List | Glossary Off
Versions: 1 2 3 4 5 6 7 8 9 10 11 12 13 14 15 16 17 18 19 20 21 22 23 24 25 26 27 28 29 30 31 32 33 34 35 36 37 38 39 40 41 42 43 44 45 46 47 48 49 50

920
ASUS43 KOAX 232310
RWRNE

WEATHER ROUNDUP FOR NEBRASKA
NATIONAL WEATHER SERVICE OMAHA NE
600 PM CDT SAT JUL 23 2016

NOTES: SATELLITE DATA IS BEING USED TO AUGMENT CLOUD COVER ABOVE
       12000 FEET.
       "FAIR" INDICATES FEW OR NO CLOUDS BELOW 12,000 FEET WITH NO
       SIGNIFICANT WEATHER AND/OR OBSTRUCTIONS TO VISIBILITY.

  * THESE STATIONS DO NOT REPORT WEATHER SUCH AS RAIN...SNOW OR FOG.

NEZ001>004-019>022-054>056-240000-
NEBRASKA PANHANDLE

CITY           SKY/WX    TMP DP  RH WIND       PRES   REMARKS
SCOTTSBLUFF    MOSUNNY   93  51  23 S7        29.95R HX  90
ALLIANCE       SUNNY     92  47  21 NE9       29.94F
CHADRON        SUNNY     95  47  19 NE15      29.91S HX  91
KIMBALL        CLOUDY    77  54  45 S10       30.06R
SIDNEY         SUNNY     92  46  20 NE8       30.00R
$$

NEZ057>060-069>072-079>082-240000-
SOUTHWEST NEBRASKA

CITY           SKY/WX    TMP DP  RH WIND       PRES   REMARKS
NORTH PLATTE   SUNNY     94  71  47 S5        29.85F HX 101
IMPERIAL       SUNNY     97  57  26 N10       29.89F HX  96
LEXINGTON      CLOUDY    92  72  51 N3        29.85S HX  99
MCCOOK         CLOUDY    93  69  45 E8        29.85S HX  98
OGALLALA       SUNNY     98  48  18 N9        29.89S HX  94
$$

NEZ005>010-023>029-035>040-094-240000-
NORTH CENTRAL NEBRASKA

CITY           SKY/WX    TMP DP  RH WIND       PRES   REMARKS
VALENTINE      SUNNY     93  55  27 N15       29.87R HX  91
AINSWORTH      SUNNY     91  63  39 NW13      29.85S HX  92
BROKEN BOW     SUNNY     90  75  61 W6        29.84S HX 100
O`NEILL        MOSUNNY   96  69  40 W5        29.78S HX 101
ORD            SUNNY     92  72  51 SW6       29.79F HX  99
THEDFORD       SUNNY     94  58  30 N13G20    29.89S HX  93
$$

NEZ041-046>049-061>064-073>077-083>087-240000-
SOUTH CENTRAL NEBRASKA

CITY           SKY/WX    TMP DP  RH WIND       PRES   REMARKS
GRAND ISLAND   CLOUDY    95  73  48 W12       29.80F HX 104
AURORA         CLOUDY    94  74  53 CALM      29.80S HX 104
HASTINGS       CLOUDY    94  74  52 NW8       29.81S HX 104
HEBRON         CLOUDY    95  68  41 S12       29.79F HX  99
HOLDREGE       MOSUNNY   90  74  59 CALM      29.84R HX  99
KEARNEY *      CLOUDY    97  64  34 NW8       29.83F HX  99
YORK           PTSUNNY   90  75  62 S6        29.80S HX 100
$$

NEZ011>018-030>034-042>045-240000-
NORTHEAST NEBRASKA

CITY           SKY/WX    TMP DP  RH WIND       PRES   REMARKS
NORFOLK        CLOUDY    88  75  65 S8        29.77F HX  97
ALBION         CLOUDY    89  74  60 S10       29.79F HX  97
BLAIR          SUNNY     90  76  62 S14       29.78S HX 102
FREMONT        CLOUDY    89  73  58 S9        29.78R HX  97
TEKAMAH        CLOUDY    89  74  60 S9        29.76S HX  98
WAYNE          CLOUDY    89  81  78 S7        29.77S HX 107
$$

NEZ050>053-065>068-078-088>093-240000-
SOUTHEAST NEBRASKA

CITY           SKY/WX    TMP DP  RH WIND       PRES   REMARKS
LINCOLN        SUNNY     94  75  54 S18       29.77F HX 105
OMAHA EPPLEY   MOSUNNY   93  75  55 S13G22    29.77F HX 104
BEATRICE       CLOUDY    92  71  48 S15       29.80F HX  98
FALLS CITY     CLOUDY    88  76  67 S9        29.81F HX  99
NEBRASKA CITY  CLOUDY    86  77  75 S12       29.80F HX  97
PLATTSMOUTH    MOSUNNY   90  77  65 S9G17     29.79F HX 102
$$

NEZ044-045-051>053-067-240000-
OMAHA AREA

CITY           SKY/WX    TMP DP  RH WIND       PRES   REMARKS
OMAHA EPPLEY   MOSUNNY   93  75  55 S13G22    29.77F HX 104
BLAIR          SUNNY     90  76  62 S14       29.78S HX 102
FREMONT        CLOUDY    89  73  58 S9        29.78R HX  97
MILLARD        SUNNY     92  78  63 S13       29.77F HX 108
OFFUTT AFB     SUNNY     92  76  60 S9        29.78F HX 104
PLATTSMOUTH    MOSUNNY   90  77  65 S9G17     29.79F HX 102
WAHOO          FAIR      90  75  61 S7        29.77F HX 101
$$




USA.gov is the U.S. government's official web portal to all federal, state and local government web resources and services.